Weather Roundup
Issued by NWS

Home | Current Version | Previous Version | Text Only | Print | Product List | Glossary On
Versions: 1 2 3 4 5 6 7 8 9 10 11 12 13 14 15 16 17 18 19 20 21 22 23 24 25 26 27 28 29 30 31 32 33 34 35 36 37 38 39 40 41 42 43 44 45 46 47 48 49 50
170
NZUS93 KARX 240610
HRRWXR

CURRENT HOURLY OBSERVATIONS ACROSS
MUCH OF THE UPPER MISSISSIPPI VALLEY
NATIONAL WEATHER SERVICE LA CROSSE WI
1200 AM CST WED JAN 24 2018


...SOUTHEAST MINNESOTA...


CITY           SKY/WX    TMP DP  RH WIND       PRES   REMARKS
ROCHESTER      FAIR      14  12  92 CALM      30.16S
ROCHESTER/MAYO FAIR      17  15  92 CALM      30.17F
WINONA         CLOUDY    18  16  93 NW5       30.20S WCI  11
AUSTIN         FAIR      16  14  93 CALM      30.17S
ALBERT LEA     FAIR      19  16  86 CALM      30.17S
DODGE CENTER   FAIR      10   9  92 CALM      30.16S
PRESTON        CLOUDY    16  13  88 NW5       30.17S WCI   9
OWATONNA       FAIR      12  10  92 SW5       30.17S WCI   4
FARIBAULT      FAIR      12  10  92 CALM      30.18S
$$

...ELSEWHERE IN MINNESOTA...


CITY           SKY/WX    TMP DP  RH WIND       PRES   REMARKS
MINNEAPOLIS    CLOUDY    18  12  77 SE3       30.20R
INTNL FALLS    CLOUDY    10  -1  61 CALM      30.13S
DULUTH         FAIR       6   0  76 CALM      30.12F
RED WING       FAIR      10   5  79 CALM      30.19F
REDWOOD FALLS  CLOUDY    24  21  88 NW6       30.19R WCI  17
MANKATO        FAIR      19  16  88 W6        30.20R WCI  11
WORTHINGTON    CLOUDY    22  21  96 W7        30.18R WCI  13
FAIRMONT       CLOUDY    22  20  92 NW6       30.20S WCI  14
$$

...SOUTHWEST WISCONSIN...


CITY           SKY/WX    TMP DP  RH WIND       PRES   REMARKS
LA CROSSE      FAIR      19  16  88 N5        30.20S WCI  12
PRAIRIE DU CHI CLOUDY    24  18  75 NW6       30.21R WCI  17
BOSCOBEL       CLOUDY    26  19  74 NW3       30.20S
LONE ROCK      CLOUDY    25  21  85 NW6       30.19S WCI  18
PLATTEVILLE    CLOUDY    24  23  93 N3        30.17S
FORT MC COY    CLOUDY    21  18  88 W3        30.20S
MAUSTON-NEW LI CLOUDY    23  20  87 NW6       30.17S WCI  15
VIROQUA        CLOUDY    21  20  97 NW6       30.16S WCI  13
WIS DELLS      CLOUDY    23  18  80 N6        30.16S WCI  16
$$

...ELSEWHERE IN WISCONSIN...


CITY           SKY/WX    TMP DP  RH WIND       PRES   REMARKS
MILWAUKEE      CLOUDY    28  23  81 W5        30.14S WCI  23
MADISON        CLOUDY    25  20  81 N5        30.16R WCI  19
GREEN BAY      FAIR      20  13  74 N7        30.16R WCI  11
EAU CLAIRE     FAIR      14  11  87 CALM      30.18S
BLACK RVR FLS  CLOUDY    21  17  83 CALM      30.18F
MEDFORD        FAIR      16  11  81 NW3       30.13S
WAUSAU         CLOUDY    20  13  74 NW9       30.12R WCI   9
WIS RAPIDS     FAIR      17  13  84 NW5       30.17R WCI  10
MARSHFIELD     CLOUDY    15  13  91 NW5       30.14R WCI   8
RICE LAKE      FAIR       2  -1  86 CALM      30.19S
$$

...NORTHEAST IOWA...


CITY           SKY/WX    TMP DP  RH WIND       PRES   REMARKS
WATERLOO       FAIR      21  17  84 W3        30.21S
DUBUQUE        CLOUDY    22  18  85 N6        30.17S WCI  14
DECORAH        MOCLDY    18  16  93 CALM      30.18R
MASON CITY     CLOUDY    21  17  84 W8        30.19F WCI  11
CHARLES CITY   CLOUDY    21  21 100 NW6       30.19S WCI  14
OELWEIN        MOCLDY    21  21 100 NW3       30.19F
$$

...ELSEWHERE IN IOWA...


CITY           SKY/WX    TMP DP  RH WIND       PRES   REMARKS
DES MOINES     CLOUDY    26  21  81 NW5       30.23R WCI  20
IOWA CITY      CLOUDY    27  17  66 NW8       30.24R WCI  19
FORT DODGE     CLOUDY    24  21  88 W6        30.21R WCI  17
MARSHALLTOWN   CLOUDY    24  20  84 W8        30.21S WCI  15
CEDAR RAPIDS   CLOUDY    24  17  74 NW8       30.20R WCI  15
$$

...NORTHERN ILLINOIS...


CITY           SKY/WX    TMP DP  RH WIND       PRES   REMARKS
CHICAGO-OHARE  CLOUDY    28  22  78 NW9       30.15F WCI  19
CHICAGO-MIDWAY CLOUDY    29  23  78 NW8       30.16S WCI  21
MOLINE         CLOUDY    26  19  74 W10       30.21S WCI  16
ROCKFORD       FLURRIES  27  22  81 W5        30.17F WCI  22
PEORIA         CLOUDY    29  21  72 W7        30.22R WCI  22
$$

NOTE: "FAIR" INDICATES FEW OR NO CLOUDS BELOW 12,000 FEET WITH NO
SIGNIFICANT WEATHER AND/OR OBSTRUCTIONS TO VISIBILITY. WIND
SPEEDS ARE IN MILES-PER-HOUR.




USA.gov is the U.S. government's official web portal to all federal, state and local government web resources and services.